Flag for Germany Weather past 2 weeks in Ibbenbüren, North Rhine-Westphalia, Germany

Now
55 °F

Partly sunny.


Feels Like: 53 °F
Forecast: 45 / 60 °F
Wind: 9 mph from West

Location: Muenster / Osnabrueck

Current Time: Sep 22, 2014 at 9:17:20 AM

Latest Report: Sep 22, 2014 at 8:50 AM


Visibility: N/A

Pressure: 30.04 "Hg

Humidity: 72%

Dew point: 46 °F

Location of IbbenbürenLocation

Historic Weather in Ibbenbüren — Graph

°F

Ibbenbüren temperature yesterday

Maximum temperature yesterday: 66 °F (at 3:50 PM)
Minimum temperature yesterday: 52 °F (at 9:50 PM)
Average temperature yesterday: 59 °F

Past Weeks' High & Low Weather Summary

 TemperatureHumidityPressure
High79 °F (Sep 18, 2:20 PM)100% (Sep 7, 7:20 AM)30.24 "Hg (Sep 7, 7:20 AM)
Low46 °F (Sep 9, 6:20 AM)48% (Sep 18, 2:20 PM)29.83 "Hg (Sep 19, 4:20 AM)
Average61 °F84%30.03 "Hg
* Reported Sep 7 7:20 AM — Sep 22 7:50 AM, Ibbenbüren, Weather by CustomWeather, © 2014

Note: Actual official high and low records may vary slightly from our data, if they occured in-between our weather recording intervals... More about our weather records

Advertising

Ibbenbüren weather history for previous 24 hours

 ConditionsComfort  
Time TempWeatherWind HumidityBarometerVisibility
7:50 AM
Sep 22
54 °FPassing clouds.9 mph82%30.04 "Hg6 mi
7:20 AM55 °FPartly cloudy.9 mph77%30.04 "Hg5 mi
6:50 AM55 °FPartly cloudy.12 mph77%30.04 "HgN/A
6:20 AM54 °FPartly cloudy.10 mph88%30.04 "HgN/A
5:50 AM54 °FPartly cloudy.8 mph88%30.04 "HgN/A
5:20 AM54 °FClear.8 mph88%30.04 "Hg10 mi
4:50 AM54 °FPassing clouds.8 mph88%30.04 "HgN/A
4:20 AM54 °FLight rain. Passing clouds.8 mph88%30.04 "HgN/A
3:50 AM54 °FLight rain. Passing clouds.9 mph88%30.04 "HgN/A
3:20 AM55 °FPassing clouds.10 mph77%30.07 "HgN/A
2:50 AM54 °FClear.8 mph88%30.07 "Hg10 mi
2:20 AM54 °FClear.8 mph88%30.07 "Hg10 mi
1:50 AM54 °FClear.7 mph88%30.07 "Hg10 mi
1:20 AM54 °FClear.7 mph88%30.07 "Hg10 mi
12:50 AM54 °FPassing clouds.8 mph88%30.07 "HgN/A
12:20 AM54 °FClear.7 mph88%30.07 "Hg10 mi
11:50 PM
Sep 21
55 °FClear.8 mph88%30.07 "Hg10 mi
11:20 PM55 °FPartly cloudy.7 mph88%30.07 "HgN/A
10:20 PM54 °FPassing clouds.6 mph88%30.07 "HgN/A
9:50 PM52 °FPassing clouds.6 mph88%30.07 "HgN/A
9:20 PM54 °FPassing clouds.6 mph82%30.07 "HgN/A
8:50 PM55 °FPassing clouds.6 mph82%30.04 "HgN/A
8:20 PM55 °FClear.6 mph82%30.04 "Hg6 mi
7:50 PM55 °FClear.7 mph82%30.04 "Hg6 mi
7:20 PM57 °FScattered clouds.7 mph77%30.04 "Hg6 mi
6:50 PM59 °FPartly sunny.9 mph77%30.04 "HgN/A
6:20 PM59 °FPartly sunny.7 mph77%30.01 "HgN/A
5:50 PM59 °FPartly sunny.9 mph77%30.01 "HgN/A
5:20 PM59 °FPartly sunny.8 mph72%30.01 "HgN/A
4:20 PM64 °FScattered clouds.14 mph64%30.01 "HgN/A
3:50 PM66 °FScattered clouds.9 mph60%30.01 "HgN/A
3:20 PM63 °FScattered clouds.10 mph64%30.01 "HgN/A
2:50 PM64 °FPassing clouds.9 mph60%30.01 "HgN/A
2:20 PM64 °FScattered clouds.9 mph64%30.01 "HgN/A
1:50 PM63 °FPartly sunny.8 mph73%30.01 "HgN/A
1:20 PM61 °FPartly sunny.9 mph77%30.01 "HgN/A
12:50 PM61 °FBroken clouds.7 mph88%30.01 "HgN/A
12:20 PM61 °FBroken clouds.7 mph88%30.01 "HgN/A
11:20 AM61 °FPartly sunny.8 mph88%30.01 "HgN/A
10:50 AM61 °FBroken clouds.9 mph94%30.01 "HgN/A
10:20 AM61 °FBroken clouds.10 mph94%29.98 "HgN/A
9:50 AM59 °FLight rain. Broken clouds.8 mph100%29.98 "Hg6 mi
9:20 AM59 °FLight rain. Fog.9 mph100%29.98 "Hg2 mi
Weather by CustomWeather, © 2014

See weather overviewHow to use our weather pages